Tracking 30115 objects as of 9-Feb-2025
HD Live streaming from Space Station
objects crossing your sky now

CZ-4 DEB

Track CZ-4 DEB now!
10-day predictions


NORAD ID: 20881
Int'l Code: 1990-081AR
Perigee: 706.8 km
Apogee: 811.3 km
Inclination: 98.5 °
Period: 99.9 minutes
Semi major axis: 7130 km
RCS: 0.1863 m2 (medium)
Launch date: September 3, 1990
Source: People's Republic of China (PRC)
Launch site: Taiyaun Space Center, China (TSC)

Note: This is SATELLITE DEBRIS
Your satellite tracking list
Your tracking list is empty




NASA's NSSDC Master Catalog

Two Line Element Set (TLE):
1 20881U 90081AR  25040.57761085  .00005333  00000-0  15868-2 0  9991
2 20881  98.4753  46.9714 0073275 326.0117  33.6389 14.42006377781059
Source of the keplerian elements: AFSPC